TimePDT,TemperatureF,Dew PointF,Humidity,Sea Level PressureIn,VisibilityMPH,Wind Direction,Wind SpeedMPH,Gust SpeedMPH,PrecipitationIn,Events,Conditions,WindDirDegrees,DateUTC
12:53 AM,57.9,51.1,78,29.94,10.0,SSE,8.1,-,N/A,,Clear,150,2012-10-07 07:53:00
1:53 AM,55.9,51.1,84,29.95,10.0,SE,4.6,-,N/A,,Clear,130,2012-10-07 08:53:00
2:53 AM,57.0,52.0,83,29.95,10.0,SE,8.1,-,N/A,,Clear,140,2012-10-07 09:53:00
3:53 AM,55.9,52.0,87,29.94,10.0,SSE,6.9,-,N/A,,Clear,150,2012-10-07 10:53:00
4:53 AM,54.0,50.0,86,29.95,10.0,ESE,3.5,-,N/A,,Clear,120,2012-10-07 11:53:00
5:53 AM,51.1,48.0,89,29.95,10.0,WNW,3.5,-,N/A,,Clear,290,2012-10-07 12:53:00
6:53 AM,48.9,46.9,93,29.97,10.0,NNE,3.5,-,N/A,,Clear,30,2012-10-07 13:53:00
7:53 AM,51.1,48.9,92,29.99,10.0,Calm,Calm,-,N/A,,Clear,0,2012-10-07 14:53:00
8:53 AM,57.0,52.0,83,29.99,10.0,Calm,Calm,-,N/A,,Clear,0,2012-10-07 15:53:00
9:53 AM,60.8,51.8,72,29.99,10.0,Calm,Calm,-,N/A,,Clear,0,2012-10-07 16:53:00
10:53 AM,64.9,52.0,63,29.98,10.0,Calm,Calm,-,N/A,,Clear,0,2012-10-07 17:53:00
11:53 AM,70.0,52.0,53,29.96,10.0,Variable,3.5,-,N/A,,Clear,0,2012-10-07 18:53:00
12:53 PM,73.0,52.0,48,29.95,10.0,Calm,Calm,-,N/A,,Clear,0,2012-10-07 19:53:00
1:53 PM,75.9,53.1,45,29.92,10.0,SW,5.8,-,N/A,,Clear,220,2012-10-07 20:53:00
2:53 PM,77.0,50.0,39,29.90,10.0,Calm,Calm,-,N/A,,Clear,0,2012-10-07 21:53:00
3:53 PM,79.0,52.0,39,29.89,10.0,SW,5.8,-,N/A,,Clear,220,2012-10-07 22:53:00
4:53 PM,78.1,52.0,40,29.88,10.0,SSW,6.9,-,N/A,,Clear,210,2012-10-07 23:53:00
5:53 PM,77.0,48.9,37,29.88,10.0,South,11.5,-,N/A,,Clear,180,2012-10-08 00:53:00
6:53 PM,72.0,51.1,48,29.89,10.0,South,9.2,-,N/A,,Clear,180,2012-10-08 01:53:00
7:53 PM,66.9,48.9,52,29.90,10.0,South,11.5,-,N/A,,Clear,180,2012-10-08 02:53:00
8:53 PM,62.1,48.9,62,29.91,10.0,SSE,11.5,-,N/A,,Clear,160,2012-10-08 03:53:00
9:53 PM,61.0,48.9,64,29.92,10.0,South,10.4,-,N/A,,Clear,170,2012-10-08 04:53:00
10:53 PM,59.0,48.9,69,29.93,10.0,South,10.4,-,N/A,,Clear,170,2012-10-08 05:53:00
11:53 PM,59.0,48.9,69,29.94,10.0,SSE,8.1,-,N/A,,Clear,160,2012-10-08 06:53:00